RH
4 4 5 4 9 35 29 28 23 32 89 100 94 94 100 100 98 94 96 96 74 82 88 91 98 97 99 99 93 100 97 97 94 83 56 46 40 41 48 51 47 42 39 38 36 32 26
4 5 5 7 20 40 38 38 25 30 53 84 99 100 99 100 100 89 100 98 73 80 69 75 98 89 82 97 100 100 100 97 96 97 93 81 63 58 61 56 50 46 44 44 43 42 36
4 5 6 9 32 56 44 50 35 32 27 40 63 95 100 100 100 95 76 95 92 63 100 99 100 100 85 86 100 100 100 94 86 98 97 98 95 92 83 58 50 48 50 52 53 52 46
8 6 7 11 49 61 55 52 60 32 52 41 28 38 64 92 92 92 67 98 100 100 100 100 93 100 100 91 100 100 100 98 100 97 98 100 97 94 79 68 66 64 62 65 63 58 50
11 8 9 16 50 45 66 59 65 51 71 65 65 42 34 81 72 90 97 98 100 100 100 100 100 100 100 100 100 100 98 98 98 94 96 95 92 96 91 82 76 71 57 59 61 53 43
12 13 13 22 48 62 59 68 75 62 54 86 78 51 35 84 71 97 100 95 89 94 100 100 100 100 100 100 100 100 99 99 98 81 81 88 96 82 82 74 62 53 50 49 54 43 34
17 15 16 21 40 71 43 76 74 81 45 59 86 50 33 62 58 68 88 99 75 67 85 100 98 98 100 97 94 100 99 97 87 80 84 87 85 74 76 62 49 44 41 42 40 33 22
25 15 20 24 26 57 59 43 73 86 68 37 72 36 23 49 79 69 95 83 69 64 60 75 84 81 64 68 96 100 93 89 84 76 78 81 76 76 67 54 45 37 35 32 28 21 16
25 18 18 24 27 41 51 25 52 72 92 51 56 43 21 50 80 67 73 90 88 74 57 48 43 36 26 29 65 97 88 82 79 79 77 70 74 66 55 44 37 34 29 24 18 14 12
29 30 16 21 24 24 37 19 27 65 83 74 60 69 33 47 64 61 52 75 91 69 46 35 34 34 27 20 32 99 92 83 81 74 68 64 58 49 43 35 29 23 19 16 13 13 25
55 30 23 20 15 17 20 14 20 49 68 73 52 72 81 42 26 36 37 45 52 38 30 53 40 25 29 39 44 86 88 85 80 74 66 54 44 34 27 22 18 16 15 21 48 55 41
80 39 29 20 21 12 10 8 13 28 46 55 55 51 76 73 59 60 66 61 58 64 74 98 78 78 95 92 88 88 98 83 78 65 45 32 25 22 20 21 21 20 45 66 55 54 68
86 61 32 23 17 14 11 6 8 14 23 51 54 51 62 74 82 82 74 79 81 81 98 97 91 100 100 100 100 100 95 77 41 31 24 21 22 24 27 26 36 54 67 72 70 85 88
88 84 43 26 18 16 9 7 6 9 17 22 42 50 55 62 67 69 75 71 50 50 50 59 87 97 93 81 45 39 36 37 36 33 25 31 34 44 36 49 60 66 76 77 69 84 95
91 89 76 36 24 17 10 8 5 6 14 20 25 30 37 47 58 66 71 67 58 67 64 59 48 44 47 69 82 76 59 43 35 38 41 44 46 56 56 58 72 82 90 85 94 96 98
91 89 86 58 30 24 16 7 6 5 7 16 21 30 35 40 52 82 66 42 48 58 69 73 67 65 64 70 78 86 65 65 73 77 71 60 62 65 70 88 93 97 98 97 98 97 98
75 85 87 77 44 26 23 12 8 5 6 9 14 23 27 42 53 70 44 40 56 72 82 82 79 80 76 80 88 93 92 86 82 78 74 75 79 86 97 97 98 98 99 99 100 97 96
73 66 81 86 62 36 26 17 7 8 5 5 11 16 21 21 35 51 26 35 47 59 77 77 78 86 96 96 92 92 94 96 98 96 91 91 95 98 99 99 97 94 97 100 98 97 92
79 57 61 83 79 42 30 23 14 7 8 5 5 10 16 17 15 20 19 25 35 56 66 74 80 76 74 76 85 96 97 97 98 100 100 97 90 99 99 95 95 93 99 97 91 94 87
90 89 56 74 84 61 31 28 16 10 9 8 5 6 9 14 15 17 15 18 43 46 49 54 59 60 64 62 68 74 62 58 72 89 87 88 92 97 98 99 100 92 96 96 97 97 95
92 89 70 69 77 76 41 26 26 12 8 9 9 6 5 8 14 16 14 14 24 33 36 37 39 43 49 52 49 47 45 42 42 43 44 49 46 51 89 69 98 95 92 93 95 92 91
90 75 79 71 74 77 62 33 26 21 11 7 9 9 6 5 6 10 13 13 14 19 22 24 24 28 34 39 41 43 43 40 38 35 30 30 30 33 46 34 36 76 89 76 33 25 23
81 74 93 91 88 76 71 48 24 24 12 10 6 9 10 8 5 5 9 11 12 13 16 19 19 22 23 26 30 32 34 38 38 36 34 26 22 21 22 21 21 21 19 16 12 10 9
63 62 75 77 96 67 83 64 42 22 20 11 11 7 8 11 10 6 4 7 9 10 12 14 16 16 17 20 22 22 23 25 26 27 26 28 23 17 15 14 14 14 12 13 13 13 12
57 54 62 56 90 82 87 76 58 33 26 17 11 12 9 6 11 12 9 6 5 8 9 10 11 13 14 16 17 18 20 19 17 18 18 16 17 18 15 14 12 12 10 10 10 10 10
52 50 56 52 49 55 94 89 70 53 31 24 14 12 10 12 6 8 12 12 10 8 5 5 8 9 9 10 11 12 13 13 14 14 14 16 13 13 13 13 13 15 16 16 16 14 14
50 49 43 54 45 49 71 94 88 67 48 31 21 16 14 9 11 11 6 8 11 13 12 11 10 8 7 6 6 6 5 5 5 6 6 6 6 6 6 6 7 7 8 8 8 9 10
50 52 42 47 46 44 49 57 84 85 67 45 30 18 17 14 9 9 13 14 7 7 8 10 12 12 12 12 12 11 10 10 9 9 9 9 9 9 8 8 7 6 6 6 6 6 7
57 48 48 40 48 44 42 55 58 92 87 67 46 33 18 18 16 12 7 9 13 14 13 10 8 7 8 9 10 11 12 13 13 13 12 12 12 12 12 12 10 10 9 9 9 7 6
Wind_Speed
58 62 69 76 78 68 74 77 81 52 36 28 14 17 16 20 18 13 19 20 16 22 25 29 33 36 32 37 42 49 55 52 54 50 47 47 45 43 42 40 40 40 39 39 39 41 43
58 63 70 74 74 64 68 70 69 73 29 19 13 1 10 14 14 10 15 13 13 14 23 25 30 33 32 28 29 39 45 41 44 49 50 44 43 41 40 39 38 38 39 39 40 42 42
60 64 68 73 71 62 63 69 61 62 57 23 20 15 12 11 15 12 8 12 11 13 20 23 27 31 29 29 28 34 40 37 36 36 40 45 45 42 37 37 36 36 36 37 39 42 43
60 66 70 74 71 61 61 65 63 53 54 51 38 25 22 14 14 10 11 12 12 14 20 19 23 27 29 30 35 34 28 37 29 28 31 36 37 35 34 34 34 35 36 37 39 41 43
61 65 71 74 73 67 57 60 63 57 53 50 51 47 15 16 14 16 19 16 14 18 37 34 29 21 27 27 29 27 26 26 26 26 23 26 28 30 31 32 32 31 32 34 37 39 41
67 66 70 74 75 73 59 56 61 59 56 55 59 57 18 22 20 19 24 23 18 13 15 26 33 25 22 20 18 16 28 23 25 27 26 26 26 24 24 23 25 27 29 32 35 37 37
71 63 69 73 76 74 68 55 56 60 56 56 59 65 31 24 26 20 19 27 22 17 16 13 15 17 16 14 15 17 21 24 26 24 23 24 24 23 23 23 23 25 28 31 36 38 35
73 67 67 72 75 74 73 58 54 56 54 54 57 69 53 26 28 26 25 29 26 16 15 16 14 9 7 5 10 20 20 21 23 22 21 21 20 19 20 20 24 26 27 32 37 39 40
70 71 64 67 73 75 73 64 54 54 55 49 54 62 62 36 27 27 21 28 23 17 11 10 12 8 5 3 6 16 18 18 17 16 15 14 15 16 18 21 24 26 29 34 37 39 40
66 71 66 66 70 74 75 67 56 51 54 46 48 53 60 31 25 25 21 23 22 17 8 1 4 3 3 4 10 15 16 14 14 11 11 11 13 16 19 21 21 26 29 31 32 29 20
63 68 70 64 67 72 74 70 59 49 53 42 44 46 48 51 40 16 14 15 17 4 4 4 6 11 8 11 15 20 17 15 14 12 10 10 12 14 17 20 22 25 23 15 13 14 15
61 63 68 67 63 68 71 70 64 50 50 38 40 43 41 38 38 37 33 26 17 17 14 12 17 22 14 15 16 18 21 15 10 9 8 9 12 15 17 16 15 10 6 8 11 14 14
60 60 63 66 60 62 67 67 65 57 48 38 37 41 39 38 33 31 28 27 27 26 25 24 21 18 17 20 21 18 17 12 10 8 8 7 7 5 4 3 3 5 8 10 9 8 14
55 59 58 61 64 57 61 63 63 59 42 42 37 34 35 38 35 32 30 30 30 30 29 25 23 22 23 22 24 20 18 13 9 5 7 7 7 4 4 1 3 6 7 7 6 10 6
53 55 57 56 60 60 55 58 58 57 44 36 39 35 31 34 36 34 33 27 32 33 32 31 28 26 26 27 23 20 16 11 11 12 11 8 6 3 0 3 5 6 6 7 7 6 8
52 52 53 54 55 58 54 52 54 54 48 31 32 33 34 33 34 33 32 36 34 33 32 30 28 26 23 22 21 17 18 17 16 16 13 9 5 3 1 2 3 4 4 5 8 8 9
51 50 48 51 51 52 55 47 49 49 48 37 27 27 33 32 33 33 28 31 31 28 26 25 25 26 25 21 19 20 22 21 17 14 10 6 4 3 4 5 7 7 9 9 8 9 13
48 48 47 45 46 47 49 48 42 44 45 43 29 24 23 29 28 28 26 26 27 27 27 27 28 26 25 25 26 23 19 16 15 14 12 10 9 9 7 10 12 12 10 13 6 10 13
45 45 46 43 44 43 45 47 40 40 41 41 38 25 23 22 26 28 26 27 27 28 28 28 29 31 30 27 24 22 25 26 24 21 22 18 15 13 14 14 13 12 15 16 18 16 14
40 43 44 42 39 40 42 42 43 34 36 37 38 36 28 22 19 23 23 27 26 28 28 29 29 28 27 25 24 26 27 25 24 24 27 27 23 20 17 15 11 11 16 18 15 10 8
35 40 42 39 37 37 36 41 39 36 29 32 34 36 35 28 21 18 18 21 24 26 26 25 24 24 22 21 21 21 21 21 21 21 21 22 22 22 21 23 19 15 13 10 11 11 8
34 36 36 37 37 31 32 33 37 38 29 26 28 31 32 30 24 19 15 15 18 20 21 19 19 19 18 17 17 17 16 16 18 19 20 19 19 19 15 15 15 11 7 7 10 10 10
33 33 35 32 32 30 28 28 29 33 31 22 21 24 26 27 26 22 16 11 12 13 12 13 13 12 11 11 11 11 11 12 13 14 15 15 14 12 10 11 11 8 9 8 8 8 10
36 29 32 32 28 29 22 24 24 25 29 27 19 17 18 20 22 22 20 12 8 7 7 6 5 4 5 4 6 7 9 10 11 11 11 13 12 10 7 6 10 12 12 12 13 15 14
33 32 29 29 29 27 24 18 20 20 22 25 23 15 12 13 15 17 17 16 12 4 1 2 3 5 6 7 6 8 11 12 12 13 14 13 14 15 14 12 13 15 16 17 19 24 27
32 32 28 29 27 31 25 18 16 19 18 20 22 21 17 9 9 11 13 12 12 12 9 5 6 8 12 14 16 15 15 17 17 17 19 19 18 18 19 20 22 24 28 30 30 31 32
34 34 31 29 28 28 29 22 15 15 17 16 17 18 18 17 9 6 7 8 8 9 9 9 10 11 9 10 12 13 13 14 13 14 12 11 10 12 16 16 18 20 25 30 31 32 32
39 35 33 30 28 28 26 29 22 14 14 16 13 13 18 17 14 12 8 8 8 8 7 9 10 11 9 10 11 15 16 16 15 16 19 19 20 16 16 18 16 17 17 17 17 18 19
41 36 34 30 31 29 29 25 24 19 17 15 17 15 11 14 16 12 10 8 7 9 12 14 12 11 14 15 15 14 16 18 20 21 24 23 23 23 23 26 27 24 21 22 22 20 17
Wind_Direction
354 358 358 356 357 1 5 6 12 6 17 18 41 179 211 216 223 248 243 249 254 232 230 225 222 220 223 228 234 234 233 232 227 227 229 231 231 233 236 239 241 246 249 253 255 258 259
357 358 0 358 358 3 8 12 18 19 360 359 357 249 261 221 215 246 242 236 247 238 226 222 212 220 213 218 228 232 234 238 237 232 224 226 231 232 236 238 241 244 248 252 256 258 258
358 358 360 360 1 3 6 10 17 22 25 350 328 314 288 261 226 231 235 216 236 234 211 202 203 205 209 209 216 220 217 220 233 232 235 235 233 232 235 240 243 246 249 254 257 259 261
359 360 1 0 3 3 5 9 14 17 21 27 20 305 286 258 233 224 186 196 186 197 208 186 189 192 186 202 201 205 212 216 217 223 227 227 227 227 233 241 244 248 253 256 258 260 262
2 1 2 2 4 7 4 6 10 14 17 14 17 10 284 225 204 195 182 180 173 164 142 154 130 153 159 182 199 205 194 201 206 216 217 219 222 226 234 240 247 252 256 258 259 261 263
6 3 3 4 4 8 6 6 9 12 18 15 10 11 357 201 182 185 168 173 167 174 158 123 144 141 159 156 181 184 203 197 195 206 213 217 218 225 232 239 247 254 259 261 262 265 270
8 4 5 5 5 7 9 7 9 11 17 20 14 12 16 180 177 164 167 154 159 153 135 117 118 125 160 165 171 158 180 188 190 201 205 208 216 226 232 240 251 257 262 265 270 275 277
10 8 7 6 7 7 11 10 8 12 17 25 24 22 21 153 157 145 150 149 144 134 137 128 106 89 88 122 157 166 176 178 190 199 199 205 213 220 230 243 254 263 268 271 274 276 278
11 10 8 8 7 7 11 14 12 11 19 26 33 33 34 123 135 129 136 137 140 141 143 130 129 122 99 183 175 157 171 175 178 188 197 207 216 229 244 253 258 263 269 274 275 281 284
11 12 10 9 9 10 10 17 17 13 17 25 39 43 50 118 111 117 119 118 132 131 114 183 235 254 273 220 173 159 162 171 181 187 194 210 226 236 245 256 270 275 277 279 280 284 279
12 11 12 10 10 10 12 17 20 18 17 33 41 47 50 68 78 113 127 126 142 164 153 116 153 172 168 157 163 170 155 167 181 192 199 221 242 257 266 277 274 275 279 274 276 287 289
12 11 12 13 10 11 13 16 23 24 22 41 45 53 54 62 73 80 86 93 101 105 112 98 108 128 105 122 147 164 173 169 175 189 211 243 257 262 268 267 274 262 266 284 286 288 300
8 12 12 13 13 12 12 16 21 26 25 42 49 53 58 59 58 68 79 88 94 96 98 100 107 107 107 113 118 127 139 135 151 170 192 223 253 261 245 200 217 242 269 282 292 299 316
7 8 10 15 13 13 14 15 19 27 35 44 49 48 57 61 66 67 76 80 84 83 84 88 97 102 100 100 104 109 117 132 136 150 135 131 115 109 139 173 257 291 313 318 309 305 347
5 6 7 10 14 14 16 16 19 25 31 51 55 56 65 73 73 71 71 74 74 76 78 81 86 92 99 101 96 94 96 101 115 122 112 102 105 74 31 308 311 324 336 323 330 333 358
4 4 6 6 12 14 15 18 19 24 27 43 54 58 63 73 75 69 66 71 79 83 84 83 87 90 92 89 96 97 113 112 108 94 86 81 80 45 40 315 347 0 353 353 334 346 40
2 2 5 6 6 14 15 17 21 23 28 28 53 62 57 67 74 75 71 72 77 78 79 82 83 86 92 94 93 98 89 78 73 75 80 90 81 65 50 29 27 37 35 30 31 75 99
-0 1 2 5 2 9 17 14 21 23 30 32 33 58 60 57 70 76 65 70 74 73 78 82 86 86 85 84 83 79 77 81 79 81 76 77 68 63 49 56 62 56 42 28 73 112 106
357 3 1 1 3 2 12 16 18 23 27 34 36 43 55 51 50 62 68 68 74 78 83 82 82 80 80 80 81 78 73 77 76 72 70 83 84 76 68 66 53 41 64 89 87 91 88
355 356 1 359 359 2 2 15 15 24 25 32 35 42 52 52 51 51 63 70 83 84 84 81 81 79 80 78 74 73 72 74 70 59 64 73 70 69 69 69 61 55 101 91 81 75 74
354 353 355 356 358 1 0 3 13 19 26 25 34 36 43 49 47 42 64 68 78 84 80 80 77 73 73 74 70 71 71 71 67 65 62 65 64 58 58 56 66 81 103 65 51 66 55
349 348 351 353 358 356 358 360 5 11 21 29 26 36 36 41 51 53 64 69 71 78 84 78 71 64 64 63 57 53 51 49 48 49 47 46 48 53 53 47 55 71 70 47 51 44 36
338 340 340 346 352 353 355 353 360 7 17 28 23 27 38 39 39 54 72 70 71 67 69 81 84 72 60 48 40 35 29 23 20 20 24 22 24 32 36 27 25 22 21 19 21 15 5
325 331 333 340 342 353 344 350 349 3 2 20 30 21 30 38 41 37 48 71 85 74 70 55 48 73 84 38 20 3 358 356 353 352 346 344 342 352 354 342 339 334 338 326 316 316 317
319 326 330 334 341 341 338 336 342 345 355 360 18 26 14 29 37 40 37 38 50 81 171 304 311 308 306 306 306 312 316 317 317 320 322 319 310 306 303 298 293 296 295 298 298 299 301
309 317 319 324 330 337 338 317 331 335 337 350 357 14 23 2 20 24 31 32 27 25 23 11 301 279 274 289 292 296 297 295 299 297 296 299 300 292 286 287 285 289 290 291 290 290 290
301 305 312 309 319 328 333 335 312 324 325 330 340 350 2 23 351 339 352 3 10 12 10 359 351 345 336 328 321 315 320 316 322 321 315 302 312 302 291 293 290 278 275 278 283 287 291
297 295 302 302 304 311 321 329 323 297 314 306 311 327 335 348 10 1 323 313 315 320 323 330 337 333 330 330 326 325 323 321 320 321 313 319 314 310 301 299 296 295 294 291 288 285 281
289 289 288 296 295 300 307 315 320 298 289 299 296 298 302 320 331 346 6 346 321 302 297 296 291 292 303 309 310 313 316 317 317 313 309 308 302 303 302 310 303 301 298 298 297 294 288